CEST,Max TemperatureF,Mean TemperatureF,Min TemperatureF,Max Dew PointF,MeanDew PointF,Min DewpointF,Max Humidity, Mean Humidity, Min Humidity, Max Sea Level PressureIn, Mean Sea Level PressureIn, Min Sea Level PressureIn, Max VisibilityMiles, Mean VisibilityMiles, Min VisibilityMiles, Max Wind SpeedMPH, Mean Wind SpeedMPH, Max Gust SpeedMPH,PrecipitationIn, CloudCover, Events, WindDirDegrees
2013-7-1,65,60,53,57,54,50,94,78,52,30.05,30.02,30.01,19,7,4,18,12,,0.00,6,,254
2013-7-2,70,60,50,59,53,48,100,72,43,30.01,29.92,29.77,14,6,0,13,5,,0.24,4,Fog-Rain,181
2013-7-3,64,62,59,59,59,57,100,91,80,29.97,29.78,29.68,13,6,2,12,7,,0.03,7,Rain,223
2013-7-4,70,64,58,61,59,57,100,84,67,30.24,30.10,29.98,14,7,6,16,8,,0.00,7,,227
2013-7-5,72,64,57,61,57,54,100,77,45,30.44,30.35,30.24,17,6,3,13,8,,0.00,7,,287
2013-7-6,77,66,54,63,57,54,100,73,44,30.45,30.41,30.36,14,7,6,13,5,,0.00,2,,52
2013-7-7,78,66,55,61,56,50,100,68,28,30.48,30.44,30.42,19,7,6,13,5,,0.00,,,37
2013-7-8,76,66,57,61,57,54,100,72,41,30.50,30.45,30.39,18,7,6,15,8,,0.00,,,37
2013-7-9,74,64,55,59,53,46,88,66,32,30.43,30.32,30.24,19,7,6,11,8,,0.00,,,21
2013-7-10,67,62,56,59,54,48,94,77,56,30.25,30.23,30.21,17,7,6,16,7,,0.00,7,,2
2013-7-11,63,59,53,52,49,46,82,66,51,30.25,30.22,30.21,16,9,6,11,7,,0.00,8,Rain,1
2013-7-12,65,56,47,57,52,46,100,81,63,30.26,30.23,30.21,19,8,1,11,4,,0.00,7,Fog-Rain,341
2013-7-13,68,58,49,57,54,50,100,78,52,30.26,30.23,30.21,17,7,0,9,3,,0.00,5,Fog,340
2013-7-14,73,60,48,61,56,49,100,82,49,30.29,30.24,30.18,8,4,0,8,3,,0.00,7,Fog,13
2013-7-15,77,68,58,61,57,54,100,71,33,30.24,30.20,30.18,19,7,3,9,4,,0.00,6,,346
2013-7-16,78,64,51,61,55,52,100,71,37,30.25,30.22,30.21,19,5,0,8,2,,0.00,6,Fog,352
2013-7-17,78,68,58,63,58,54,88,68,43,30.27,30.24,30.21,19,8,5,9,3,,0.00,7,,18
2013-7-18,80,70,59,64,61,55,100,73,36,30.29,30.26,30.24,19,6,2,15,6,,0.00,2,,23
2013-7-19,80,68,57,61,58,54,88,66,41,30.29,30.25,30.21,19,8,6,16,9,,0.00,2,,43
2013-7-20,71,66,60,61,59,57,94,78,56,30.25,30.19,30.12,16,7,6,10,6,,0.00,8,Rain,30
2013-7-21,86,71,56,64,60,55,100,68,32,30.17,30.10,30.04,19,7,4,9,5,,0.00,,,60
2013-7-22,88,74,60,66,63,57,100,68,29,30.06,30.00,29.95,19,7,6,10,3,,0.00,,,359
2013-7-23,86,73,60,68,63,57,100,71,31,29.98,29.92,29.89,19,7,2,8,3,,0.00,,,312
2013-7-24,78,70,62,64,61,57,100,75,53,30.00,29.95,29.89,17,6,3,15,6,,0.00,5,,258
2013-7-25,82,68,55,66,61,55,100,74,43,29.99,29.95,29.92,19,7,6,14,4,,0.00,3,Rain,232
2013-7-26,79,70,62,68,65,59,100,84,63,29.98,29.91,29.86,18,7,4,8,3,,0.20,4,Rain-Thunderstorm,21
2013-7-27,76,68,61,68,65,61,100,87,60,29.86,29.76,29.65,19,5,1,11,4,28,0.55,4,Fog-Rain-Thunderstorm,78
2013-7-28,75,70,64,68,60,55,100,74,48,29.89,29.79,29.62,19,7,2,18,12,25,0.00,5,Rain-Thunderstorm,196
2013-7-29,74,67,60,63,59,57,88,71,49,29.99,29.92,29.86,19,7,6,20,9,28,0.00,4,Rain,219
2013-7-30,69,65,61,63,58,55,100,79,56,30.02,29.97,29.86,17,7,2,24,15,28,0.12,6,Rain,218
2013-7-31,73,68,62,64,62,59,94,81,58,30.06,30.00,29.92,19,7,6,17,13,,0.00,6,Rain,241